Location: Skalnate Pleso
(49.1889°N, 20.2450°E)
Time: 16:16:16
(UTC+01:00)

CZ-2C R/B - Pass Details

Date: 19 November 2019
Orbit: 667 x 785 km, 98.1° (Epoch: 11 December)

Event Time Altitude Azimuth Distance (km) Brightness Sun altitude
Rises 05:45:02 0° 2° (N) 3,179 5.5 -11.3°
Reaches altitude 10° 05:48:03 10° 343° (NNW) 2,228 4.6 -10.8°
Maximum altitude 05:51:08 17° 303° (WNW) 1,763 3.8 -10.3°
Drops below altitude 10° 05:54:10 10° 264° (W) 2,171 4.3 -9.9°
Enters shadow 05:54:14 10° 263° (W) 2,187 4.3 -9.8°
